Regional Weather Roundup
Issued by NWS Goodland, KS

Home | Current Version | Previous Version | Text Only | Print | Product List | Glossary Off
Versions: 1 2 3 4 5 6 7 8 9 10 11 12 13 14 15 16 17 18 19 20 21 22 23 24 25 26 27 28 29 30 31 32 33 34 35 36 37 38 39 40 41 42 43 44 45 46 47 48 49 50

000
ASUS43 KGLD 190208
RWRGLD

GOODLAND FORECAST AREA HOURLY WEATHER ROUNDUP
NATIONAL WEATHER SERVICE GOODLAND KS
800 PM MDT THU SEP 18 2014

...OFFICIAL OBSERVATIONS...

CITY           SKY/WX    TMP DP  RH WIND       PRES   REMARKS
GOODLAND KS    CLEAR     69  56  62 S10       29.92R
HILL CITY KS   CLEAR     68  64  87 CALM      29.88R
IMPERIAL NEB   CLEAR     63  60  90 SE9       29.90S
MCCOOK NEB     CLEAR     63  61  93 E7        29.90R
AKRON CO       CLEAR     70  57  63 SE10      29.94R
BURLINGTON CO  CLEAR     75  48  38 S13       29.95R
LIMON CO       CLEAR     73  37  27 S15G22    30.01R
$$

...UNOFFICIAL OBSERVATIONS...

CITY           SKY/WX    TMP DP  RH WIND       PRES   REMARKS
COLBY KS       CLEAR     70  70 100 E7        29.93R
GOVE KS          N/A     77  32  19 MISG        N/A
NORTON KS      CLEAR     64  59  82 CALM      29.88S
SHARON SPRINGS   N/A     74  56  52 S9          N/A
TRIBUNE KS     CLEAR     77  59  53 S12       29.97
WAKEENEY KS      N/A     77  60  56 MISG        N/A
TRENTON NEB      N/A     63  32  31 E8          N/A
YUMA CO          N/A     69  61  76 E12         N/A
$$


USA.gov is the U.S. government's official web portal to all federal, state and local government web resources and services.